Tiempo atmosférico en la estación meteorológica de Sant Pau De Seguries, Girona (863 m.)



Fecha
DESCASC
Temp. máxima en grados centígrados (hora)
DESCASC
Temp. mínima en grados centígrados (hora)
DESCASC
Temp. media en grados centígrados
DESCASC
Racha de viento máxima en m/sg (hora)
DESCASC
Velocidad máxima media en intervalos de 10 minutos(hora)
DESCASC
Precipitaciones diarias en mm
DESCASC
Precipitaciones de 00:00 a 06:00 en mm
DESCASC
Precipitaciones de 06:00 a 12:00 en mm
DESCASC
Precipitaciones de 12:00 a 18:00 en mm
DESCASC
Precipitaciones de 18:00 a 24:00 en mm
DESCASC
26-11-2020 10.3 (14:00) 5.5 (01:00) 7.9 3.61 (12:40) 1.67 (12:40) 11.6 2.8 7 1.4 0.4
25-11-2020 12.1 (13:30) 1.5 (08:30) 6.8 7.5 (15:00) 3.33 (04:20) 0.4 0 0 0 0.4
24-11-2020 13.4 (13:40) -2.6 (07:20) 5.4 6.94 (14:30) 3.33 (14:10) 0 0 0 0 0
23-11-2020 13.7 (13:30) -3.8 (07:50) 4.9 3.33 (14:40) 1.94 (14:40) 0 0 0 0 0
22-11-2020 13 (14:00) -4.5 (-00:0) 4.3 4.17 (12:10) 1.94 (12:10) 0 0 0 0 0
21-11-2020 10.5 (14:20) -5.9 (-00:0) 2.3 4.17 (15:10) 2.5 (15:10) 0 0 0 0 0
20-11-2020 13.6 (15:30) -2.3 (-00:0) 5.7 12.78 (13:20) 5 (13:20) 0 0 0 0 0
19-11-2020 17.8 (13:00) 2.2 (00:00) 10 5.28 (10:50) 2.5 (11:20) 0 0 0 0 0
18-11-2020 16.6 (13:20) 0.8 (00:00) 8.7 4.17 (12:40) 2.5 (15:00) 0 0 0 0 0
17-11-2020 16 (14:10) 2.2 (00:00) 9.1 6.94 (01:20) 3.61 (01:20) 0 0 0 0 0
16-11-2020 12.4 (14:00) 4.3 (00:00) 8.3 3.61 (12:00) 1.94 (12:30) 0 0 0 0 0
15-11-2020 15 (15:10) 7.2 (00:00) 11.1 11.11 (06:30) 5.28 (06:20) 0 0 0 0 0
14-11-2020 15.6 (13:50) 2.2 (00:00) 8.9 11.67 (14:10) 4.72 (14:10) 0 0 0 0 0
13-11-2020 14 (15:00) 1.7 (00:00) 7.9 6.67 (04:50) 3.06 (13:00) 0 0 0 0 0
12-11-2020 17.3 (13:40) 2.3 (00:00) 9.8 5.83 (01:30) 2.78 (01:30) 0 0 0 0 0
11-11-2020 15 (14:10) 1.9 (00:00) 8.4 8.89 (14:00) 4.17 (23:50) 0.2 0.2 0 0 0
10-11-2020 16.2 (12:40) 1.5 (00:00) 8.9 4.17 (14:50) 2.22 (15:20) 1.4 0 0 1.4 0
09-11-2020 16.4 (15:00) 2.2 (00:00) 9.3 7.5 (14:30) 3.61 (14:20) 0 0 0 0 0
08-11-2020 16.3 (14:30) 4.6 (00:00) 10.4 7.5 (16:30) 3.33 (20:00) 0.2 0.2 0 0 0
07-11-2020 12.8 (12:40) 9.4 (00:00) 11.1 7.5 (13:20) 3.33 (13:20) 13.4 0.2 7.4 5.8 0
06-11-2020 13.9 (14:50) 9 (00:00) 11.4 3.89 (02:20) 2.22 (15:40) 0.8 0.6 0.2 0 0
05-11-2020 13.6 (14:30) 2.4 (00:00) 8 4.44 (11:00) 2.5 (15:50) 0 0 0 0 0
04-11-2020 9.4 (16:00) 4.3 (00:00) 6.8 4.72 (14:30) 2.22 (14:30) 11.4 7.2 3.8 0.4 0
03-11-2020 13.5 (12:00) 5.4 (00:00) 9.5 4.44 (14:00) 2.22 (14:00) 18.2 0 0 4.2 14
02-11-2020 21.5 (13:10) 4.2 (00:00) 12.8 5.83 (05:10) 2.78 (05:10) 0 0 0 0 0
01-11-2020 20.7 (13:20) 1.9 (00:00) 11.3 3.33 (13:20) 1.67 (13:20) 0 0 0 0 0
31-10-2020 21.1 (13:10) 1.4 (00:00) 11.3 5.83 (13:50) 2.78 (13:40) 0 0 0 0 0
30-10-2020 21.9 (14:00) 2.4 (00:00) 12.1 4.17 (13:40) 1.94 (13:30) 0 0 0 0 0

Gráficas

Temp. máximas Temp. mínimas Temp. medias Precipitaciones Rachas de viento máximas Velocidades máximas media en intervalos de 10 minutos

Datos horarios

Fecha y hora oficial Temperatura (ºC) Velocidad del viento (km/h) Dirección del viento Racha (km/h) Dirección de racha Precipitación (mm) Presión (hPa) Tendencia (hPa) Humedad (%)
2020-11-28 23:00:00 8.4 7 Nordeste 16 Este 2 -- -- 100
2020-11-28 22:00:00 8.5 4 Nordeste 19 Este 2.6 -- -- 100
2020-11-28 21:00:00 8.5 5 Nordeste 13 Nordeste 2.8 -- -- 100
2020-11-28 20:00:00 8.4 5 Nordeste 14 Nordeste 4 -- -- 100
2020-11-28 19:00:00 8.1 6 Nordeste 15 Nordeste 1.8 -- -- 100
2020-11-28 18:00:00 8 8 Nordeste 16 Nordeste 1.6 -- -- 100
2020-11-28 17:00:00 8.1 10 Nordeste 22 Este 0.4 -- -- 100
2020-11-28 16:00:00 8.3 10 Nordeste 25 Este 1 -- -- 100
2020-11-28 15:00:00 8.3 9 Nordeste 19 Este 3.6 -- -- 100
2020-11-28 14:00:00 7.8 8 Nordeste 19 Nordeste 4 -- -- 100
2020-11-28 13:00:00 6.4 9 Nordeste 21 Nordeste 1.6 -- -- 100
2020-11-28 12:00:00 5.4 5 Norte 18 Norte 3 -- -- 99
2020-11-28 11:00:00 5.2 6 Nordeste 24 Norte 6.4 -- -- 98
2020-11-28 10:00:00 5.9 6 Norte 36 Noroeste 5.2 -- -- 100
2020-11-28 09:00:00 5.9 9 Norte 29 Norte 3.4 -- -- 99
2020-11-28 08:00:00 7 6 Nordeste 23 Nordeste 2.6 -- -- 100
2020-11-28 07:00:00 7.2 5 Nordeste 14 Este 1 -- -- 100
2020-11-28 06:00:00 7.3 6 Nordeste 14 Este 0 -- -- 100
2020-11-28 05:00:00 6.4 0 Calma 3 Nordeste 0.4 -- -- 100
2020-11-28 04:00:00 6.6 0 Calma 12 Oeste 2.4 -- -- 100
2020-11-28 03:00:00 6.9 4 Sudoeste 6 Oeste 0.6 -- -- 100
2020-11-28 02:00:00 7.4 0 Calma 7 Nordeste 1 -- -- 100
2020-11-28 01:00:00 7.6 3 Nordeste 10 Norte 2.2 -- -- 100
2020-11-28 00:00:00 8 4 Nordeste 31 Este 6.6 -- -- 97
2020-11-27 23:00:00 8.3 6 Norte 16 Nordeste 3 -- -- 100
2020-11-27 22:00:00 8.3 8 Nordeste 21 Nordeste 2.2 -- -- 100
2020-11-27 21:00:00 8.1 8 Nordeste 19 Nordeste 0 -- -- 97
2020-11-27 20:00:00 8.3 8 Nordeste 21 Norte 0.2 -- -- 96
2020-11-27 19:00:00 8 7 Nordeste 18 Nordeste 1.2 -- -- 97
2020-11-27 18:00:00 8.4 6 Nordeste 14 Nordeste 0.2 -- -- 97
2020-11-27 17:00:00 8.6 6 Nordeste 20 Nordeste 0 -- -- 100
2020-11-27 16:00:00 8.6 6 Nordeste 14 Nordeste 0.2 -- -- 95
2020-11-27 15:00:00 8.3 6 Nordeste 16 Norte 0.6 -- -- 96
2020-11-27 14:00:00 8.8 4 Nordeste 12 Nordeste 1 -- -- 97
2020-11-27 13:00:00 8.8 3 Nordeste 8 Sudeste 1 -- -- 99
2020-11-27 12:00:00 8.7 4 Nordeste 12 Este 1.4 -- -- 99
2020-11-27 11:00:00 7.9 4 Nordeste 12 Nordeste 1.8 -- -- 100
2020-11-27 10:00:00 7.4 2 Sudeste 7 Nordeste 0.8 -- -- 100
2020-11-27 09:00:00 7 3 Nordeste 6 Nordeste 0.2 -- -- 100
2020-11-27 08:00:00 6.9 2 Nordeste 9 Este 0.6 -- -- 100
2020-11-27 07:00:00 6.3 0 Calma 9 Sudeste 0 -- -- 100
2020-11-27 06:00:00 5.3 2 Este 5 Sudeste 0 -- -- 100
2020-11-27 05:00:00 5.9 0 Calma 4 Este 0 -- -- 100
2020-11-27 04:00:00 7.3 3 Este 7 Este 0 -- -- 99
2020-11-27 03:00:00 7.4 3 Este 6 Este 0 -- -- 99
2020-11-27 02:00:00 7.5 3 Este 8 Norte 0 -- -- 100
2020-11-27 01:00:00 8 3 Nordeste 5 Este 0 -- -- 100
2020-11-27 00:00:00 8.2 2 Nordeste 6 Nordeste 0 -- -- 100
2020-11-26 23:00:00 8 4 Nordeste 6 Nordeste 0 -- -- 100
2020-11-26 22:00:00 7.6 0 Calma 4 Norte 0.2 -- -- 100
2020-11-26 21:00:00 7.8 0 Calma 3 Nordeste 0 -- -- 100
2020-11-26 20:00:00 8.8 0 Calma 5 Nordeste 0 -- -- 100
2020-11-26 19:00:00 8.9 0 Calma -- -- 0.2 -- -- 100
2020-11-26 18:00:00 9.2 0 Calma -- -- 0 -- -- 100
2020-11-26 17:00:00 9.5 0 Calma -- -- 0 -- -- 100
2020-11-26 16:00:00 9.8 0 Calma -- -- 0 -- -- 100
2020-11-26 15:00:00 9.7 0 Calma 11 Sudeste 1.4 -- -- 99
2020-11-26 14:00:00 10.3 0 Calma 11 Oeste 0 -- -- 99
2020-11-26 13:00:00 10.1 3 Oeste 13 Sudoeste 0 -- -- 100
2020-11-26 12:00:00 8.9 3 Sudoeste 6 Sudoeste 0.6 -- -- 100
2020-11-26 11:00:00 7.3 2 Sudoeste 10 Oeste 2 -- -- 100
2020-11-26 10:00:00 7.3 0 Calma 3 Sudeste 0.8 -- -- 100
2020-11-26 09:00:00 6.6 0 Calma 5 Sur 0.6 -- -- 100
2020-11-26 08:00:00 6.6 2 Sudoeste 6 Norte 1.8 -- -- 100
2020-11-26 07:00:00 6.5 0 Calma 6 Nordeste 1.2 -- -- 100
2020-11-26 06:00:00 6.2 0 Calma 4 Nordeste 1.8 -- -- 100
2020-11-26 05:00:00 5.9 0 Calma 3 Nordeste 0.6 -- -- 100
2020-11-26 04:00:00 5.9 0 Calma 3 Sur 0 -- -- 100
2020-11-26 03:00:00 5.9 0 Calma 3 Noroeste 0.4 -- -- 100
2020-11-26 02:00:00 5.8 0 Calma 4 Sudeste 0 -- -- 100
2020-11-26 01:00:00 5.5 0 Calma 4 Noroeste 0 -- -- 100
2020-11-26 00:00:00 6 0 Calma 11 Oeste 0 -- -- 100
2020-11-25 23:00:00 7 5 Sudoeste 14 Oeste 0 -- -- 100
2020-11-25 22:00:00 7.4 3 Oeste 8 Oeste 0 -- -- 99
2020-11-25 21:00:00 7.7 3 Sudoeste 9 Sudoeste 0.4 -- -- 98
2020-11-25 20:00:00 8 0 Calma 5 Sudoeste 0 -- -- 92
2020-11-25 19:00:00 7.8 2 Oeste 6 Noroeste 0 -- -- 90
2020-11-25 18:00:00 9.1 3 Sudoeste 15 Sudoeste 0 -- -- 83
2020-11-25 17:00:00 9.8 6 Sur 22 Sudoeste 0 -- -- 80
2020-11-25 16:00:00 10.4 7 Sudoeste 22 Oeste 0 -- -- 75
2020-11-25 15:00:00 10.2 9 Sudoeste 27 Sudoeste 0 -- -- 78
2020-11-25 14:00:00 10.8 8 Sudoeste 24 Sudoeste 0 -- -- 74
2020-11-25 13:00:00 11 6 Sudoeste 22 Sudoeste 0 -- -- 69
2020-11-25 12:00:00 10.9 9 Sur 25 Sudoeste 0 -- -- 64
2020-11-25 11:00:00 9.6 4 Sur 15 Sur 0 -- -- 69
2020-11-25 10:00:00 5.6 7 Sur 13 Sudeste 0 -- -- 81
2020-11-25 09:00:00 1.9 3 Oeste 8 Oeste 0 -- -- 97
2020-11-25 08:00:00 1.9 0 Calma 7 Sudoeste 0 -- -- 91
2020-11-25 07:00:00 4.3 5 Sudoeste 21 Sudoeste 0 -- -- 85
2020-11-25 06:00:00 4.9 11 Sudoeste 24 Sudoeste 0 -- -- 83
2020-11-25 05:00:00 4.9 11 Sudoeste 26 Sudoeste 0 -- -- 84
2020-11-25 04:00:00 4.9 9 Sudoeste 23 Sudoeste 0 -- -- 85
2020-11-25 03:00:00 5.1 11 Sudoeste 23 Sudoeste 0 -- -- 86
2020-11-25 02:00:00 5.1 9 Sur 24 Sudoeste 0 -- -- 88
2020-11-25 01:00:00 5.4 10 Sudoeste 22 Sudoeste 0 -- -- 92
2020-11-25 00:00:00 4.6 6 Sudoeste 18 Oeste 0 -- -- 91
2020-11-24 23:00:00 4.8 6 Sudoeste 15 Sudoeste 0 -- -- 88
2020-11-24 22:00:00 5.6 8 Sudoeste 21 Oeste 0 -- -- 86
2020-11-24 21:00:00 5.9 7 Sudoeste 17 Oeste 0 -- -- 90
2020-11-24 20:00:00 5 0 Calma 4 Sudoeste 0 -- -- 96
2020-11-24 19:00:00 4.4 0 Calma 5 Sur 0 -- -- 86
2020-11-24 18:00:00 6.9 2 Sur 15 Sudoeste 0 -- -- 76
2020-11-24 17:00:00 9.1 6 Sudoeste 16 Sudoeste 0 -- -- 62
2020-11-24 16:00:00 10.9 9 Sudoeste 22 Oeste 0 -- -- 50
2020-11-24 15:00:00 12 9 Sudoeste 25 Sudoeste 0 -- -- 48
2020-11-24 14:00:00 13.1 11 Sudoeste 24 Oeste 0 -- -- 46
2020-11-24 13:00:00 12.6 8 Sudoeste 20 Sudoeste 0 -- -- 42
2020-11-24 12:00:00 10.4 3 Sur 9 Sur 0 -- -- 53
2020-11-24 11:00:00 5.5 4 Sur 6 Sur 0 -- -- 70
2020-11-24 10:00:00 -0.7 0 Calma 3 Sur 0 -- -- 100
2020-11-24 09:00:00 -2.4 0 Calma 4 Sur 0 -- -- 100
2020-11-24 08:00:00 -2.6 0 Calma 4 Sur 0 -- -- 100
2020-11-24 07:00:00 -2.4 0 Calma 3 Sudeste 0 -- -- 100
2020-11-24 06:00:00 -2.3 0 Calma 4 Sur 0 -- -- 100
2020-11-24 05:00:00 -2.2 0 Calma 3 Sur 0 -- -- 100
2020-11-24 04:00:00 -1.7 0 Calma 4 Sudoeste 0 -- -- 100
2020-11-24 03:00:00 -1.5 0 Calma 4 Sudeste 0 -- -- 100
2020-11-24 02:00:00 -1.5 0 Calma 2 Sur 0 -- -- 100
2020-11-24 01:00:00 -1.4 0 Calma 2 Sur 0 -- -- 100
2020-11-24 00:00:00 -1 0 Calma 3 Sur 0 -- -- 100
2020-11-23 23:00:00 -0.5 0 Calma 2 Sur 0 -- -- 99
2020-11-23 22:00:00 0.1 0 Calma 4 Sudoeste 0 -- -- 98
2020-11-23 21:00:00 0.6 0 Calma 3 Sur 0 -- -- 96
2020-11-23 20:00:00 1.5 0 Calma 2 Sur 0 -- -- 94
2020-11-23 19:00:00 2.9 0 Calma 4 Norte 0 -- -- 88
2020-11-23 18:00:00 5.4 0 Calma 4 Nordeste 0 -- -- 82
2020-11-23 17:00:00 8.8 0 Calma 9 Nordeste 0 -- -- 71
2020-11-23 16:00:00 10.9 2 Sudeste 11 Sudeste 0 -- -- 61
2020-11-23 15:00:00 12 4 Sur 12 Sudeste 0 -- -- 59
2020-11-23 14:00:00 13.4 7 Sudeste 11 Sudeste 0 -- -- 53
2020-11-23 13:00:00 13.1 5 Sudeste 10 Sudoeste 0 -- -- 53
2020-11-23 12:00:00 10.3 5 Sudoeste 11 Sudoeste 0 -- -- 58
2020-11-23 11:00:00 4.8 4 Sudoeste 10 Oeste 0 -- -- 75
2020-11-23 10:00:00 -1.2 0 Calma 5 Sudoeste 0 -- -- 100
2020-11-23 09:00:00 -3.3 0 Calma 3 Sur 0 -- -- 100
2020-11-23 08:00:00 -3.7 0 Calma 5 Oeste 0 -- -- 99
2020-11-23 07:00:00 -3.5 2 Sudoeste 5 Sudoeste 0 -- -- 99
2020-11-23 06:00:00 -3.3 0 Calma 3 Sur 0 -- -- 99
2020-11-23 05:00:00 -3.1 0 Calma 4 Sur 0 -- -- 98
2020-11-23 04:00:00 -2.9 2 Sur 6 Sudeste 0 -- -- 97
2020-11-23 03:00:00 -2.9 2 Sur 3 Sur 0 -- -- 96
2020-11-23 02:00:00 -2.5 2 Sur 4 Sur 0 -- -- 94
2020-11-23 01:00:00 -1.8 0 Calma 4 Sudoeste 0 -- -- 93
2020-11-23 00:00:00 -0.7 0 Calma 7 Nordeste 0 -- -- 87
2020-11-22 23:00:00 -0.5 0 Calma 5 Este 0 -- -- 94
2020-11-22 22:00:00 -0.7 0 Calma -- -- 0 -- -- 94
2020-11-22 21:00:00 -0.2 0 Calma -- -- 0 -- -- 92
2020-11-22 20:00:00 0.6 0 Calma -- -- 0 -- -- 89
2020-11-22 19:00:00 2.3 0 Calma 3 Nordeste 0 -- -- 83
2020-11-22 18:00:00 4.8 2 Nordeste 6 Nordeste 0 -- -- 75
2020-11-22 17:00:00 8.1 0 Calma 8 Nordeste 0 -- -- 65
2020-11-22 16:00:00 10.6 3 Sudeste 10 Nordeste 0 -- -- 56
2020-11-22 15:00:00 11.9 4 Nordeste 9 Nordeste 0 -- -- 51
2020-11-22 14:00:00 13 4 Sudeste 8 Este 0 -- -- 49
2020-11-22 13:00:00 12.4 4 Sudeste 15 Sudoeste 0 -- -- 48
2020-11-22 12:00:00 9.6 6 Sudoeste 14 Oeste 0 -- -- 50
2020-11-22 11:00:00 4.6 4 Sudoeste 9 Sudoeste 0 -- -- 66
2020-11-22 10:00:00 -1.7 3 Sur 6 Sudoeste 0 -- -- 93
2020-11-22 09:00:00 -3.8 0 Calma 4 Sudoeste 0 -- -- 96
2020-11-22 08:00:00 -4.3 0 Calma 4 Este 0 -- -- 96
2020-11-22 07:00:00 -4.4 0 Calma 3 Sur 0 -- -- 96
2020-11-22 06:00:00 -4.2 0 Calma 4 Sur 0 -- -- 97
2020-11-22 05:00:00 -4.2 0 Calma 4 Sur 0 -- -- 96
2020-11-22 04:00:00 -4 0 Calma 3 Sur 0 -- -- 94
2020-11-22 03:00:00 -3.7 0 Calma 3 Sudeste 0 -- -- 93
2020-11-22 02:00:00 -3 0 Calma 4 Sur 0 -- -- 91
2020-11-22 01:00:00 -1.7 0 Calma 10 Nordeste 0 -- -- 86
2020-11-22 00:00:00 -3 0 Calma 4 Sudeste 0 -- -- 95
2020-11-21 23:00:00 -2.7 0 Calma 5 Sur 0 -- -- 93
2020-11-21 22:00:00 -2 0 Calma 4 Sur 0 -- -- 89
2020-11-21 21:00:00 -0.9 0 Calma 8 Norte 0 -- -- 85
2020-11-21 20:00:00 1.1 0 Calma 10 Este 0 -- -- 77
2020-11-21 19:00:00 0.8 2 Este 6 Este 0 -- -- 79
2020-11-21 18:00:00 2.4 2 Nordeste 6 Este 0 -- -- 73
2020-11-21 17:00:00 6 0 Calma 6 Sudeste 0 -- -- 59
2020-11-21 16:00:00 8.5 3 Sudeste 15 Este 0 -- -- 44
2020-11-21 15:00:00 9.5 6 Este 12 Sudeste 0 -- -- 44
2020-11-21 14:00:00 10 5 Sudeste 14 Este 0 -- -- 41
2020-11-21 13:00:00 10 8 Sudeste 14 Este 0 -- -- 44
2020-11-21 12:00:00 10 4 Sudeste 10 Sudeste 0 -- -- 35
2020-11-21 11:00:00 5.6 3 Nordeste 6 Nordeste 0 -- -- 45
2020-11-21 10:00:00 -2.3 0 Calma 8 Sudeste 0 -- -- 75
2020-11-21 09:00:00 -5.3 3 Sur 5 Sur 0 -- -- 88
2020-11-21 08:00:00 -5.7 3 Oeste 8 Sudoeste 0 -- -- 90
2020-11-21 07:00:00 -5 4 Sudoeste 8 Sudoeste 0 -- -- 86
2020-11-21 06:00:00 -4.7 2 Sur 9 Sudoeste 0 -- -- 87
2020-11-21 05:00:00 -4.4 3 Oeste 8 Sur 0 -- -- 87
2020-11-21 04:00:00 -3.9 0 Calma 6 Sudeste 0 -- -- 87
2020-11-21 03:00:00 -3.2 2 Nordeste 11 Sur -- -- -- 87
2020-11-21 02:00:00 -2.6 3 Nordeste 13 Sudoeste 0 -- -- 87
2020-11-21 01:00:00 -2.3 3 Este 9 Sur 0 -- -- 91
2020-11-21 00:00:00 -2.2 3 Sudoeste 9 Sur 0 -- -- 92
2020-11-20 23:00:00 -1.4 2 Sudoeste 6 Sudeste 0 -- -- 90
2020-11-20 22:00:00 0.1 0 Calma 10 Norte 0 -- -- 82
2020-11-20 21:00:00 1.7 5 Este 14 Sudoeste 0 -- -- 79
2020-11-20 20:00:00 2.4 4 Sur 12 Sudoeste 0 -- -- 75
2020-11-20 19:00:00 4.3 5 Oeste 14 Oeste 0 -- -- 70
2020-11-20 18:00:00 6.2 3 Sudeste 18 Oeste 0 -- -- 53
2020-11-20 17:00:00 11.4 9 Oeste 21 Oeste 0 -- -- 37
2020-11-20 16:00:00 13.2 7 Oeste 36 Norte 0 -- -- 12
2020-11-20 15:00:00 12.9 12 Oeste 41 Norte 0 -- -- 11
2020-11-20 14:00:00 12.5 14 Norte 46 Noroeste 0 -- -- 12
2020-11-20 13:00:00 11.7 13 Norte 45 Norte 0 -- -- 16
2020-11-20 12:00:00 12.3 8 Este 18 Sudeste 0 -- -- 23
2020-11-20 11:00:00 8.2 3 Sudoeste 16 Sudoeste 0 -- -- 57
2020-11-20 10:00:00 5.3 8 Este 17 Este 0 -- -- 62
2020-11-20 09:00:00 1.3 5 Sudoeste 17 Sudoeste 0 -- -- 89
2020-11-20 08:00:00 1.2 6 Sur 14 Sudoeste 0 -- -- 95
2020-11-20 07:00:00 0.3 3 Sudeste 10 Sur 0 -- -- 98
2020-11-20 06:00:00 0.4 3 Sur 9 Norte 0 -- -- 96
2020-11-20 05:00:00 0.7 3 Sur 9 Sur 0 -- -- 93
2020-11-20 04:00:00 2.1 2 Este 8 Este 0 -- -- 86
2020-11-20 03:00:00 2.9 5 Este 8 Este 0 -- -- 88
2020-11-20 02:00:00 4 4 Este 10 Este 0 -- -- 90
2020-11-20 01:00:00 3.6 2 Este 10 Norte 0 -- -- 95
2020-11-20 00:00:00 4.5 3 Este 8 Este 0 -- -- 94
2020-11-19 23:00:00 5.8 2 Este 10 Nordeste 0 -- -- 94
2020-11-19 22:00:00 6.1 3 Nordeste 8 Este 0 -- -- 99
2020-11-19 21:00:00 6.1 3 Norte 9 Este 0 -- -- 96
2020-11-19 20:00:00 8.7 2 Este 9 Nordeste 0 -- -- 91
2020-11-19 19:00:00 9.4 5 Nordeste 11 Nordeste 0 -- -- 92
2020-11-19 18:00:00 10.5 3 Nordeste 5 Nordeste 0 -- -- 86
2020-11-19 17:00:00 14.1 3 Nordeste 14 Este 0 -- -- 77
2020-11-19 16:00:00 15.6 6 Este 11 Este 0 -- -- 69
2020-11-19 15:00:00 16.4 5 Sudeste 12 Este 0 -- -- 64
2020-11-19 14:00:00 16.8 7 Este 14 Este 0 -- -- 58
2020-11-19 13:00:00 17.8 5 Sur 15 Sudoeste 0 -- -- 54
2020-11-19 12:00:00 15.4 5 Sudoeste 17 Sudoeste 0 -- -- 64
2020-11-19 11:00:00 10.3 8 Sudoeste 19 Sudoeste 0 -- -- 95
2020-11-19 10:00:00 6 6 Sur 12 Sur 0 -- -- 100
2020-11-19 09:00:00 2.4 0 Calma 7 Oeste 0 -- -- 100
2020-11-19 08:00:00 2.3 4 Sudoeste 7 Sur 0 -- -- 100
2020-11-19 07:00:00 2.7 2 Sur 8 Sur 0 -- -- 100
2020-11-19 06:00:00 2.7 2 Sudeste 7 Nordeste 0 -- -- 100
2020-11-19 05:00:00 2.6 2 Noroeste 8 Sur 0 -- -- 100
2020-11-19 04:00:00 2.8 0 Calma 4 Sur 0 -- -- 100
2020-11-19 03:00:00 3.2 0 Calma 5 Sudeste 0 -- -- 100
2020-11-19 02:00:00 3.2 0 Calma 5 Este 0 -- -- 100
2020-11-19 01:00:00 3.2 0 Calma 4 Norte 0 -- -- 100
2020-11-19 00:00:00 3.5 0 Calma 3 Sur 0 -- -- 100
2020-11-18 23:00:00 4 0 Calma 3 Sur 0 -- -- 100
2020-11-18 22:00:00 4.5 0 Calma 2 Noroeste 0 -- -- 99
2020-11-18 21:00:00 5.5 0 Calma 5 Sudeste 0 -- -- 96
2020-11-18 20:00:00 7.3 2 Nordeste 6 Nordeste 0 -- -- 95
2020-11-18 19:00:00 8.1 4 Nordeste 6 Nordeste 0 -- -- 94
2020-11-18 18:00:00 9.8 3 Nordeste 6 Nordeste 0 -- -- 89
2020-11-18 17:00:00 12.6 3 Nordeste 9 Nordeste 0 -- -- 82
2020-11-18 16:00:00 14 2 Sudeste 14 Sudeste 0 -- -- 72
2020-11-18 15:00:00 15.1 9 Sudeste 14 Sudeste 0 -- -- 69
2020-11-18 14:00:00 16.6 6 Sur 13 Oeste 0 -- -- 64
2020-11-18 13:00:00 16.1 5 Sur 15 Sudoeste 0 -- -- 66
2020-11-18 12:00:00 13.9 8 Sudoeste 13 Oeste 0 -- -- 71
2020-11-18 11:00:00 9.6 4 Sur 7 Sudoeste 0 -- -- 100
2020-11-18 10:00:00 4.9 2 Sur 5 Sudeste 0 -- -- 100
2020-11-18 09:00:00 1.2 2 Sur 4 Sur 0 -- -- 100
2020-11-18 08:00:00 0.9 0 Calma 5 Sur 0 -- -- 100
2020-11-18 07:00:00 1.5 0 Calma 4 Oeste 0 -- -- 100
2020-11-18 06:00:00 2.3 2 Sudoeste 7 Sur 0 -- -- 100
2020-11-18 05:00:00 2.8 2 Sudoeste 6 Sur 0 -- -- 100
2020-11-18 04:00:00 3.3 2 Sudoeste 6 Sudoeste 0 -- -- 100
2020-11-18 03:00:00 2.1 0 Calma 4 Sudoeste 0 -- -- 100
2020-11-18 02:00:00 2.3 0 Calma 3 Sur 0 -- -- 100
2020-11-18 01:00:00 2.8 0 Calma 3 Norte 0 -- -- 100
2020-11-18 00:00:00 3.4 0 Calma 3 Sur 0 -- -- 100
2020-11-17 23:00:00 4.8 2 Sudeste 5 Sur 0 -- -- 100
2020-11-17 22:00:00 4.6 0 Calma 7 Sudoeste 0 -- -- 99
2020-11-17 21:00:00 5.3 0 Calma 7 Este 0 -- -- 94
2020-11-17 20:00:00 6.6 3 Este 8 Nordeste 0 -- -- 94
2020-11-17 19:00:00 7.5 2 Nordeste 6 Nordeste 0 -- -- 91
2020-11-17 18:00:00 9.2 2 Nordeste 5 Nordeste 0 -- -- 86
2020-11-17 17:00:00 12 0 Calma 10 Sudeste 0 -- -- 76
2020-11-17 16:00:00 14 4 Sudeste 11 Sur 0 -- -- 70
2020-11-17 15:00:00 15.1 4 Sur 12 Sudeste 0 -- -- 65
2020-11-17 14:00:00 15.9 6 Sudeste 12 Sur 0 -- -- 64
2020-11-17 13:00:00 14.9 5 Este 9 Sudeste 0 -- -- 62
2020-11-17 12:00:00 14.2 2 Sur 7 Sudoeste 0 -- -- 60
2020-11-17 11:00:00 10 4 Sur 9 Sudoeste 0 -- -- 82
2020-11-17 10:00:00 4.8 4 Sudoeste 9 Sudoeste 0 -- -- 100
2020-11-17 09:00:00 2.3 2 Sur 5 Sudoeste 0 -- -- 97
2020-11-17 08:00:00 2.9 4 Sudoeste 9 Nordeste 0 -- -- 91
2020-11-17 07:00:00 3.5 5 Nordeste 15 Norte 0 -- -- 86
2020-11-17 06:00:00 2.6 2 Este 11 Norte 0 -- -- 93
2020-11-17 05:00:00 2.9 0 Calma 10 Norte 0 -- -- 95
2020-11-17 04:00:00 3.9 3 Nordeste 15 Norte 0 -- -- 90
2020-11-17 03:00:00 5.1 4 Nordeste 15 Nordeste 0 -- -- 85
2020-11-17 02:00:00 7.2 7 Oeste 25 Oeste 0 -- -- 96
2020-11-17 01:00:00 7.6 5 Oeste 23 Sudoeste 0 -- -- 96
2020-11-17 00:00:00 8.2 3 Oeste 10 Norte 0 -- -- 93
2020-11-16 23:00:00 8.7 3 Norte 6 Norte 0 -- -- 93
2020-11-16 22:00:00 9.2 0 Calma 5 Nordeste 0 -- -- 97
2020-11-16 21:00:00 9.2 2 Norte 5 Nordeste 0 -- -- 97
2020-11-16 20:00:00 9.2 0 Calma 6 Nordeste 0 -- -- 93
2020-11-16 19:00:00 9.8 3 Nordeste 5 Nordeste 0 -- -- 92
2020-11-16 18:00:00 10.1 2 Este 4 Sudeste 0 -- -- 91
2020-11-16 17:00:00 10.5 3 Sudeste 10 Sudeste 0 -- -- 89
2020-11-16 16:00:00 11 6 Este 10 Este 0 -- -- 89
2020-11-16 15:00:00 11.8 3 Este 9 Sudeste 0 -- -- 87
2020-11-16 14:00:00 12.4 0 Calma 5 Sur 0 -- -- 86
2020-11-16 13:00:00 11.5 2 Sur 11 Nordeste 0 -- -- 89
2020-11-16 12:00:00 12.2 6 Nordeste 13 Sudeste 0 -- -- 88
2020-11-16 11:00:00 11.1 0 Calma 5 Este 0 -- -- 88
2020-11-16 10:00:00 7.4 0 Calma 4 Este 0 -- -- 100
2020-11-16 09:00:00 5.8 0 Calma 5 Sudeste 0 -- -- 100
2020-11-16 08:00:00 4.4 2 Sudoeste 4 Sur 0 -- -- 100
2020-11-16 07:00:00 5.3 0 Calma 5 Sur 0 -- -- 100
2020-11-16 06:00:00 5.9 0 Calma 4 Sur 0 -- -- 100
2020-11-16 05:00:00 6.1 2 Sur 4 Sur 0 -- -- 98
2020-11-16 04:00:00 7.8 3 Este 8 Este 0 -- -- 93
2020-11-16 03:00:00 7.6 3 Este 7 Sudeste 0 -- -- 100
2020-11-16 02:00:00 7.9 0 Calma 4 Sur 0 -- -- 100
2020-11-16 01:00:00 8.3 3 Sudoeste 9 Sudoeste 0 -- -- 100
2020-11-16 00:00:00 8.1 5 Sudoeste 10 Sudoeste 0 -- -- 100
2020-11-15 23:00:00 8.7 0 Calma 13 Sudoeste 0 -- -- 100
2020-11-15 22:00:00 9.1 4 Sudoeste 19 Oeste 0 -- -- 100
2020-11-15 21:00:00 9.4 6 Oeste 12 Oeste 0 -- -- 99
2020-11-15 20:00:00 9.8 5 Sudoeste 15 Sudoeste 0 -- -- 96
2020-11-15 19:00:00 10.5 6 Sudoeste 14 Sudoeste 0 -- -- 93
2020-11-15 18:00:00 11.8 4 Sudoeste 22 Oeste 0 -- -- 87
2020-11-15 17:00:00 13.2 10 Oeste 26 Oeste 0 -- -- 82
2020-11-15 16:00:00 14.6 10 Sudoeste 26 Sudoeste 0 -- -- 77
2020-11-15 15:00:00 14.8 12 Sudoeste 33 Oeste 0 -- -- 76
2020-11-15 14:00:00 14.5 14 Sudoeste 32 Oeste 0 -- -- 74
2020-11-15 13:00:00 13.5 14 Sudoeste 34 Sudoeste 0 -- -- 76
2020-11-15 12:00:00 12.8 14 Sudoeste 35 Sudoeste 0 -- -- 78
2020-11-15 11:00:00 11 17 Sudoeste 35 Sudoeste 0 -- -- 84
2020-11-15 10:00:00 9 11 Sudoeste 38 Oeste 0 -- -- 94
2020-11-15 09:00:00 7.9 6 Sudoeste 23 Oeste 0 -- -- 98
2020-11-15 08:00:00 7.4 9 Sudoeste 33 Sudoeste 0 -- -- 97
2020-11-15 07:00:00 8.3 15 Oeste 40 Oeste 0 -- -- 95
2020-11-15 06:00:00 8.6 15 Oeste 32 Oeste 0 -- -- 95
2020-11-15 05:00:00 8.6 10 Sudoeste 28 Oeste 0 -- -- 96
2020-11-15 04:00:00 8.5 10 Sudoeste 23 Oeste 0 -- -- 97
2020-11-15 03:00:00 9 9 Oeste 26 Oeste 0 -- -- 96
2020-11-15 02:00:00 8.6 10 Sudoeste 19 Sudoeste 0 -- -- 100
2020-11-15 01:00:00 7.6 5 Sudoeste 13 Sur 0 -- -- 100
2020-11-15 00:00:00 7.2 3 Sur 8 Sudoeste 0 -- -- 100
2020-11-14 23:00:00 7.3 0 Calma 4 Oeste 0 -- -- 100
2020-11-14 22:00:00 7.4 2 Sur 4 Sur 0 -- -- 98
2020-11-14 21:00:00 8.3 0 Calma 7 Sur 0 -- -- 96
2020-11-14 20:00:00 10.1 5 Sur 18 Sudoeste 0 -- -- 90
2020-11-14 19:00:00 11 8 Sudoeste 18 Sudoeste 0 -- -- 87
2020-11-14 18:00:00 11.8 6 Sudoeste 15 Oeste 0 -- -- 82
2020-11-14 17:00:00 13.2 5 Sudoeste 24 Sur 0 -- -- 75
2020-11-14 16:00:00 14.2 10 Sudoeste 29 Sur 0 -- -- 70
2020-11-14 15:00:00 15.2 10 Sudoeste 42 Sudoeste 0 -- -- 68
2020-11-14 14:00:00 15.4 16 Sudoeste 35 Sudoeste 0 -- -- 64
2020-11-14 13:00:00 14.9 12 Sudoeste 35 Oeste 0 -- -- 67
2020-11-14 12:00:00 14.3 13 Sudoeste 33 Oeste 0 -- -- 70
2020-11-14 11:00:00 11.7 14 Sudoeste 30 Sudoeste 0 -- -- 73
2020-11-14 10:00:00 7.1 6 Sudoeste 17 Sudoeste 0 -- -- 92
2020-11-14 09:00:00 2.7 5 Sudoeste 15 Sudoeste 0 -- -- 100
2020-11-14 08:00:00 2.3 5 Sudoeste 20 Sudoeste 0 -- -- 100
2020-11-14 07:00:00 2.4 7 Sudoeste 19 Oeste 0 -- -- 100
2020-11-14 06:00:00 2.5 3 Sudoeste 10 Sudoeste 0 -- -- 100
2020-11-14 05:00:00 2.8 5 Sudoeste 14 Oeste 0 -- -- 100
2020-11-14 04:00:00 3.3 5 Sudoeste 18 Sudoeste 0 -- -- 100
2020-11-14 03:00:00 3.2 4 Sudoeste 18 Oeste 0 -- -- 100
2020-11-14 02:00:00 3.1 6 Sudoeste 20 Sudoeste 0 -- -- 100
2020-11-14 01:00:00 3.3 7 Sudoeste 18 Oeste 0 -- -- 100
2020-11-14 00:00:00 2.4 3 Sur 4 Sudeste 0 -- -- 100
2020-11-13 23:00:00 1.9 0 Calma 3 Sudoeste 0 -- -- 100
2020-11-13 22:00:00 2.8 0 Calma 3 Sur 0 -- -- 99
2020-11-13 21:00:00 3.7 0 Calma 3 Sur 0 -- -- 96
2020-11-13 20:00:00 5 0 Calma 2 Nordeste 0 -- -- 94
2020-11-13 19:00:00 6.7 0 Calma 2 Este 0 -- -- 89
2020-11-13 18:00:00 9.1 0 Calma 4 Nordeste 0 -- -- 83
2020-11-13 17:00:00 11.6 0 Calma 6 Nordeste 0 -- -- 80
2020-11-13 16:00:00 12.7 4 Sudeste 12 Sudeste 0 -- -- 64
2020-11-13 15:00:00 14 6 Sur 19 Sudoeste 0 -- -- 62
2020-11-13 14:00:00 13.2 8 Sudoeste 23 Sudoeste 0 -- -- 65
2020-11-13 13:00:00 12.8 11 Sudoeste 21 Oeste 0 -- -- 64
2020-11-13 12:00:00 12.6 10 Sudoeste 21 Oeste 0 -- -- 68
2020-11-13 11:00:00 10.4 6 Sudoeste 18 Sur 0 -- -- 81
2020-11-13 10:00:00 6.9 5 Sudoeste 20 Oeste 0 -- -- 86
2020-11-13 09:00:00 4.2 6 Sudoeste 15 Sudoeste 0 -- -- 92
2020-11-13 08:00:00 3 4 Sur 16 Sudoeste 0 -- -- 95
2020-11-13 07:00:00 3.3 6 Sudoeste 24 Oeste 0 -- -- 91
2020-11-13 06:00:00 2.9 8 Sudoeste 22 Oeste 0 -- -- 95
2020-11-13 05:00:00 2.9 10 Sudoeste 24 Oeste 0 -- -- 95
2020-11-13 04:00:00 2.8 10 Sudoeste 23 Sudoeste 0 -- -- 96
2020-11-13 03:00:00 2.7 8 Sudoeste 19 Sudoeste 0 -- -- 99
2020-11-13 02:00:00 3 8 Sudoeste 19 Oeste 0 -- -- 100
2020-11-13 01:00:00 3.3 6 Sudoeste 13 Sudoeste 0 -- -- 100
2020-11-13 00:00:00 3.3 4 Sudoeste 9 Oeste 0 -- -- 100
2020-11-12 23:00:00 2.6 0 Calma 6 Sur 0 -- -- 100
2020-11-12 22:00:00 3 0 Calma 4 Sur 0 -- -- 98
2020-11-12 21:00:00 3.8 0 Calma 3 Sudeste 0 -- -- 94
2020-11-12 20:00:00 5.4 0 Calma 5 Nordeste 0 -- -- 87
2020-11-12 19:00:00 7.5 3 Este 7 Nordeste 0 -- -- 82
2020-11-12 18:00:00 9.4 3 Nordeste 6 Nordeste 0 -- -- 82
2020-11-12 17:00:00 12.4 0 Calma 8 Nordeste 0 -- -- 77
2020-11-12 16:00:00 14.9 4 Nordeste 10 Este 0 -- -- 52
2020-11-12 15:00:00 16.4 4 Este 13 Este 0 -- -- 43
2020-11-12 14:00:00 17.3 5 Sudeste 10 Sudeste 0 -- -- 38
2020-11-12 13:00:00 16.3 2 Este 9 Sudoeste 0 -- -- 45
2020-11-12 12:00:00 13.2 4 Sudoeste 8 Sur 0 -- -- 67
2020-11-12 11:00:00 9.5 3 Sur 6 Sur 0 -- -- 93
2020-11-12 10:00:00 5.7 2 Sudeste 4 Sudoeste 0 -- -- 100
2020-11-12 09:00:00 3 0 Calma 5 Sudoeste 0 -- -- 100
2020-11-12 08:00:00 2.5 0 Calma 7 Sudoeste 0 -- -- 100
2020-11-12 07:00:00 2.7 0 Calma 4 Oeste 0 -- -- 100
2020-11-12 06:00:00 3.1 2 Sudoeste 12 Sur 0 -- -- 100
2020-11-12 05:00:00 3.7 5 Sur 14 Sur 0 -- -- 100
2020-11-12 04:00:00 4 7 Sudoeste 15 Sudoeste 0 -- -- 100
2020-11-12 03:00:00 4.2 7 Sudoeste 20 Sudoeste 0 -- -- 100
2020-11-12 02:00:00 4.9 6 Sudoeste 21 Oeste 0 -- -- 100
2020-11-12 01:00:00 5.4 9 Sudoeste 20 Oeste 0 -- -- 98
2020-11-12 00:00:00 6 9 Sudoeste 28 Sudoeste 0 -- -- 97
2020-11-11 23:00:00 6.6 13 Sudoeste 28 Sudoeste 0 -- -- 94
2020-11-11 22:00:00 7.5 13 Sudoeste 23 Sudoeste 0 -- -- 92
2020-11-11 21:00:00 8.3 10 Sudoeste 22 Oeste 0 -- -- 89
2020-11-11 20:00:00 9.5 11 Sudoeste 27 Oeste 0 -- -- 84
2020-11-11 19:00:00 9.9 6 Sudoeste 23 Sudoeste 0 -- -- 83
2020-11-11 18:00:00 11.1 5 Sudoeste 26 Sudoeste 0 -- -- 76
2020-11-11 17:00:00 13 13 Sudoeste 30 Oeste 0 -- -- 72
2020-11-11 16:00:00 14.1 12 Sudoeste 27 Sudoeste 0 -- -- 71
2020-11-11 15:00:00 14.9 10 Sudoeste 26 Oeste 0 -- -- 66
2020-11-11 14:00:00 14.9 13 Sudoeste 32 Oeste 0 -- -- 66
2020-11-11 13:00:00 14.6 10 Sudoeste 22 Sudoeste 0 -- -- 68
2020-11-11 12:00:00 13.2 6 Sudoeste 15 Sudoeste 0 -- -- 80
2020-11-11 11:00:00 8.9 5 Sudoeste 10 Sudoeste 0 -- -- 100
2020-11-11 10:00:00 5 4 Sudoeste 10 Sudoeste 0 -- -- 100
2020-11-11 09:00:00 2.1 0 Calma 7 Oeste 0 -- -- 100
2020-11-11 08:00:00 2 3 Sudoeste 5 Sudoeste 0 -- -- 100
2020-11-11 07:00:00 2.2 3 Sudoeste 5 Oeste 0 -- -- 100
2020-11-11 06:00:00 2.5 2 Sudoeste 5 Oeste 0 -- -- 100
2020-11-11 05:00:00 3 3 Oeste 5 Oeste 0.2 -- -- 100
2020-11-11 04:00:00 3.6 3 Sudoeste 5 Oeste 0 -- -- 100
2020-11-11 03:00:00 4.3 3 Oeste 8 Oeste 0 -- -- 100
2020-11-11 02:00:00 5 4 Sudoeste 8 Sudoeste 0 -- -- 100
2020-11-11 01:00:00 5.7 2 Sudoeste 4 Sudoeste 0 -- -- 100
2020-11-11 00:00:00 6 0 Calma 4 Oeste 0 -- -- 100
2020-11-10 23:00:00 6.3 0 Calma 4 Sudeste 0 -- -- 100
2020-11-10 22:00:00 6 0 Calma 4 Noroeste 0 -- -- 100
2020-11-10 21:00:00 5.6 0 Calma 4 Sudeste 0 -- -- 100
2020-11-10 20:00:00 6.3 0 Calma 3 Sur 0 -- -- 100
2020-11-10 19:00:00 7.2 0 Calma 3 Sur 0 -- -- 99
2020-11-10 18:00:00 8.1 0 Calma 4 Sur 0 -- -- 96
2020-11-10 17:00:00 10.3 2 Sur 8 Sur 0.2 -- -- 94
2020-11-10 16:00:00 12.3 0 Calma 14 Nordeste 1.2 -- -- 90
2020-11-10 15:00:00 14.7 5 Este 15 Este 0 -- -- 69
2020-11-10 14:00:00 14.3 5 Sudeste 15 Este 0 -- -- 70
2020-11-10 13:00:00 15.6 7 Sudeste 13 Este 0 -- -- 67
2020-11-10 12:00:00 14.5 6 Sudoeste 15 Sudoeste 0 -- -- 66
2020-11-10 11:00:00 11 4 Sudoeste 10 Sudoeste 0 -- -- 94
2020-11-10 10:00:00 6.3 3 Sur 6 Sur 0 -- -- 100
2020-11-10 09:00:00 2 2 Sur 3 Sur 0 -- -- 100
2020-11-10 08:00:00 1.6 0 Calma 4 Sur 0 -- -- 100
2020-11-10 07:00:00 2 2 Sudoeste 4 Sudoeste 0 -- -- 100
2020-11-10 06:00:00 2.6 0 Calma 4 Sudoeste 0 -- -- 100
2020-11-10 05:00:00 3.1 0 Calma 6 Nordeste 0 -- -- 100
2020-11-10 04:00:00 3.4 0 Calma 4 Sudeste 0 -- -- 100
2020-11-10 03:00:00 3.3 0 Calma 3 Sur 0 -- -- 100
2020-11-10 02:00:00 3.9 0 Calma 5 Nordeste 0 -- -- 100
2020-11-10 01:00:00 4.4 0 Calma 4 Sudeste 0 -- -- 99
2020-11-10 00:00:00 5.4 2 Sur 5 Este 0 -- -- 98
2020-11-09 23:00:00 5.9 0 Calma 5 Nordeste 0 -- -- 96
2020-11-09 22:00:00 8.1 3 Nordeste 7 Este 0 -- -- 92
2020-11-09 21:00:00 8.8 4 Este 8 Nordeste 0 -- -- 91
2020-11-09 20:00:00 8.9 5 Nordeste 9 Nordeste 0 -- -- 92
2020-11-09 19:00:00 8.4 2 Nordeste 5 Nordeste 0 -- -- 94
2020-11-09 18:00:00 10.4 0 Calma 10 Sur 0 -- -- 84
2020-11-09 17:00:00 13.2 6 Sur 14 Sur 0 -- -- 73
2020-11-09 16:00:00 15.1 6 Sudoeste 22 Sudoeste 0 -- -- 65
2020-11-09 15:00:00 16.4 11 Oeste 27 Sudoeste 0 -- -- 58
2020-11-09 14:00:00 15.4 9 Oeste 26 Oeste 0 -- -- 63
2020-11-09 13:00:00 14.9 11 Sudoeste 21 Sudoeste 0 -- -- 65
2020-11-09 12:00:00 13 9 Sudoeste 21 Sudoeste 0 -- -- 71
2020-11-09 11:00:00 8.9 7 Sudoeste 13 Sudoeste 0 -- -- 91
2020-11-09 10:00:00 5.4 6 Sudoeste 14 Sudoeste 0 -- -- 100
2020-11-09 09:00:00 2.8 5 Sudoeste 9 Sudoeste 0 -- -- 100
2020-11-09 08:00:00 2.3 3 Sur 14 Sudoeste 0 -- -- 100
2020-11-09 07:00:00 2.8 7 Sudoeste 16 Sudoeste 0 -- -- 100
2020-11-09 06:00:00 3.1 4 Sudoeste 19 Oeste 0 -- -- 100
2020-11-09 05:00:00 3.7 9 Sudoeste 18 Oeste 0 -- -- 100
2020-11-09 04:00:00 4.2 5 Sudoeste 14 Sudoeste 0 -- -- 100
2020-11-09 03:00:00 4.9 7 Sudoeste 18 Sudoeste 0 -- -- 100
2020-11-09 02:00:00 5.6 7 Sudoeste 19 Sudoeste 0 -- -- 100
2020-11-09 01:00:00 6.8 6 Sudoeste 15 Sudoeste 0 -- -- 100
2020-11-09 00:00:00 7.4 5 Sudoeste 11 Oeste 0 -- -- 100
2020-11-08 23:00:00 8.5 4 Sudoeste 13 Sudoeste 0 -- -- 98
2020-11-08 22:00:00 9.7 5 Sudoeste 20 Oeste 0 -- -- 96
2020-11-08 21:00:00 10.3 7 Sudoeste 23 Sudoeste 0 -- -- 96
2020-11-08 20:00:00 10.8 12 Sudoeste 26 Sudoeste 0 -- -- 95
2020-11-08 19:00:00 11.3 8 Sudoeste 22 Oeste 0 -- -- 93
2020-11-08 18:00:00 12 7 Oeste 21 Oeste 0 -- -- 88
2020-11-08 17:00:00 13.1 8 Sudoeste 27 Oeste 0 -- -- 82
2020-11-08 16:00:00 14.1 10 Sudoeste 22 Oeste 0 -- -- 71
2020-11-08 15:00:00 16 8 Sudoeste 21 Oeste 0 -- -- 62
2020-11-08 14:00:00 15.4 7 Sudoeste 18 Sudoeste 0 -- -- 67
2020-11-08 13:00:00 15.7 8 Sudoeste 16 Oeste 0 -- -- 70
2020-11-08 12:00:00 14.4 7 Sudoeste 13 Oeste 0 -- -- 69
2020-11-08 11:00:00 11.9 4 Sudoeste 9 Sudoeste 0 -- -- 87
2020-11-08 10:00:00 7.9 4 Sudoeste 8 Sur 0 -- -- 100
2020-11-08 09:00:00 4.8 0 Calma 4 Oeste 0 -- -- 100
2020-11-08 08:00:00 4.9 2 Oeste 9 Sur 0 -- -- 100
2020-11-08 07:00:00 5.8 3 Sudoeste 12 Sudoeste 0 -- -- 100
2020-11-08 06:00:00 6.7 3 Sudoeste 13 Oeste 0.2 -- -- 100
2020-11-08 05:00:00 7.5 7 Sudoeste 24 Oeste 0 -- -- 100
2020-11-08 04:00:00 8.4 11 Sudoeste 25 Oeste 0 -- -- 100
2020-11-08 03:00:00 8.7 9 Sudoeste 18 Oeste 0 -- -- 100
2020-11-08 02:00:00 8.9 6 Sudoeste 22 Sudoeste 0 -- -- 100
2020-11-08 01:00:00 9.2 7 Sudoeste 19 Oeste 0 -- -- 100
2020-11-08 00:00:00 9.4 8 Sudoeste 16 Sudoeste 0 -- -- 100
2020-11-07 23:00:00 9.6 0 Calma 7 Sudoeste 0 -- -- 100
2020-11-07 22:00:00 10 3 Oeste 12 Sudoeste 0 -- -- 100
2020-11-07 21:00:00 10.2 6 Oeste 15 Oeste 0 -- -- 100
2020-11-07 20:00:00 10.7 7 Sudoeste 19 Oeste 0 -- -- 100
2020-11-07 19:00:00 11.5 6 Sudoeste 15 Sudoeste 0 -- -- 97
2020-11-07 18:00:00 11.9 5 Sudoeste 19 Sudoeste 0 -- -- 95
2020-11-07 17:00:00 12.3 6 Sudoeste 22 Sudoeste 0 -- -- 95
2020-11-07 16:00:00 12.2 10 Sudoeste 23 Sudoeste 0 -- -- 98
2020-11-07 15:00:00 12.2 8 Sudoeste 16 Sudoeste 0.4 -- -- 100
2020-11-07 14:00:00 12.4 5 Sudoeste 27 Sudoeste 3.2 -- -- 100
2020-11-07 13:00:00 12.8 4 Nordeste 14 Norte 2.2 -- -- 100
2020-11-07 12:00:00 12.4 3 Nordeste 6 Norte 0.4 -- -- 100
2020-11-07 11:00:00 11.8 0 Calma 8 Este 4.8 -- -- 100
2020-11-07 10:00:00 11.5 4 Norte 11 Norte 1.6 -- -- 100
2020-11-07 09:00:00 11.4 3 Nordeste 13 Nordeste 0.2 -- -- 100
2020-11-07 08:00:00 11.4 6 Nordeste 21 Este 0.2 -- -- 100
2020-11-07 07:00:00 11.4 6 Nordeste 14 Norte 0.2 -- -- 100
2020-11-07 06:00:00 11.4 8 Nordeste 13 Norte 0 -- -- 100
2020-11-07 05:00:00 11.4 6 Nordeste 14 Norte 0.2 -- -- 100
2020-11-07 04:00:00 11.4 6 Norte 15 Nordeste 0 -- -- 100
2020-11-07 03:00:00 11.4 8 Nordeste 12 Nordeste 0 -- -- 100
2020-11-07 02:00:00 11.4 5 Nordeste 13 Nordeste 0 -- -- 100
2020-11-07 01:00:00 11.7 5 Nordeste 9 Este 0 -- -- 96
2020-11-07 00:00:00 11.6 2 Este 10 Nordeste 0 -- -- 95
2020-11-06 23:00:00 11.6 0 Calma 9 Nordeste 0 -- -- 95
2020-11-06 22:00:00 11.8 3 Nordeste 8 Nordeste 0 -- -- 93
2020-11-06 21:00:00 11.8 3 Este 6 Sudeste 0 -- -- 92
2020-11-06 20:00:00 11.8 3 Sudeste 7 Norte 0 -- -- 92
2020-11-06 19:00:00 11.8 0 Calma 10 Este 0 -- -- 92
2020-11-06 18:00:00 12.1 4 Este 7 Este 0 -- -- 89
2020-11-06 17:00:00 12.2 4 Nordeste 12 Este 0 -- -- 89
2020-11-06 16:00:00 12.9 4 Este 11 Este 0 -- -- 89
2020-11-06 15:00:00 13.9 3 Este 12 Sudeste 0 -- -- 77
2020-11-06 14:00:00 13.8 6 Este 12 Nordeste 0 -- -- 79
2020-11-06 13:00:00 13.7 4 Nordeste 10 Nordeste 0 -- -- 79
2020-11-06 12:00:00 12.5 4 Norte 10 Norte 0 -- -- 87
2020-11-06 11:00:00 11.6 0 Calma 6 Nordeste 0 -- -- 95
2020-11-06 10:00:00 11.3 3 Nordeste 9 Nordeste 0 -- -- 96
2020-11-06 09:00:00 10.2 2 Nordeste 7 Nordeste 0 -- -- 100
2020-11-06 08:00:00 9.3 0 Calma 8 Nordeste 0 -- -- 100
2020-11-06 07:00:00 9.1 3 Este 6 Norte 0.2 -- -- 100
2020-11-06 06:00:00 9.2 3 Norte 5 Norte 0 -- -- 100
2020-11-06 05:00:00 9.3 2 Sudeste 6 Este 0.2 -- -- 99
2020-11-06 04:00:00 9.4 0 Calma 5 Este 0.4 -- -- 97
2020-11-06 03:00:00 9.9 2 Este 14 Nordeste 0 -- -- 89
2020-11-06 02:00:00 9.9 2 Nordeste 8 Nordeste 0 -- -- 86
2020-11-06 01:00:00 9.8 4 Nordeste 10 Nordeste 0 -- -- 86
2020-11-06 00:00:00 10.1 4 Norte 12 Nordeste 0 -- -- 85
2020-11-05 23:00:00 10.8 4 Nordeste 13 Nordeste 0 -- -- 83
2020-11-05 22:00:00 10.9 4 Nordeste 13 Nordeste 0 -- -- 85
2020-11-05 21:00:00 10.7 6 Nordeste 15 Este 0 -- -- 87
2020-11-05 20:00:00 10.2 3 Nordeste 10 Nordeste 0 -- -- 94
2020-11-05 19:00:00 10.1 3 Este 8 Nordeste 0 -- -- 94
2020-11-05 18:00:00 10.7 6 Nordeste 10 Nordeste 0 -- -- 93
2020-11-05 17:00:00 11 4 Este 12 Sudeste 0 -- -- 89
2020-11-05 16:00:00 11.8 7 Sudeste 15 Sudeste 0 -- -- 85
2020-11-05 15:00:00 12.9 9 Sudeste 14 Sudeste 0 -- -- 81
2020-11-05 14:00:00 13.2 5 Sudeste 12 Sudeste 0 -- -- 84
2020-11-05 13:00:00 11.5 6 Sudeste 15 Sudeste 0 -- -- 88
2020-11-05 12:00:00 11.7 6 Sudeste 13 Sudeste 0 -- -- 87
2020-11-05 11:00:00 10.8 6 Sudeste 16 Sudeste 0 -- -- 88
2020-11-05 10:00:00 10 4 Nordeste 11 Este 0 -- -- 91
2020-11-05 09:00:00 5.7 5 Este 10 Nordeste 0 -- -- 100
2020-11-05 08:00:00 4.4 5 Este 14 Nordeste 0 -- -- 100
2020-11-05 07:00:00 4.3 5 Este 12 Este 0 -- -- 100
2020-11-05 06:00:00 3.8 3 Este 6 Nordeste 0 -- -- 100
2020-11-05 05:00:00 2.5 0 Calma 3 Noroeste 0 -- -- 100
2020-11-05 04:00:00 3 0 Calma 5 Sudeste 0 -- -- 100
2020-11-05 03:00:00 3.8 3 Este 6 Este 0 -- -- 100
2020-11-05 02:00:00 3.4 2 Este 5 Nordeste 0 -- -- 100
2020-11-05 01:00:00 3.5 0 Calma 7 Norte 0 -- -- 100
2020-11-05 00:00:00 4.4 2 Sudeste 8 Norte 0 -- -- 100
2020-11-04 23:00:00 5 3 Este 7 Nordeste 0 -- -- 99
2020-11-04 22:00:00 5.7 0 Calma 7 Nordeste 0 -- -- 98
2020-11-04 21:00:00 7.1 4 Nordeste 7 Nordeste 0 -- -- 98
2020-11-04 20:00:00 8 4 Nordeste 6 Nordeste 0 -- -- 100
2020-11-04 19:00:00 8.4 4 Este 10 Nordeste 0 -- -- 100
2020-11-04 18:00:00 8.7 4 Este 8 Nordeste 0 -- -- 100
2020-11-04 17:00:00 9.3 5 Nordeste 9 Nordeste 0 -- -- 97
2020-11-04 16:00:00 9.4 5 Sudoeste 10 Oeste 0 -- -- 96
2020-11-04 15:00:00 9 5 Sudoeste 17 Sudoeste 0 -- -- 98
2020-11-04 14:00:00 8.7 4 Sudoeste 11 Sudoeste 0 -- -- 100
2020-11-04 13:00:00 8.5 3 Sudoeste 10 Sudoeste 0.4 -- -- 100
2020-11-04 12:00:00 8.3 5 Sudoeste 10 Sudoeste 0 -- -- 100
2020-11-04 11:00:00 8 2 Oeste 4 Sudoeste 0.2 -- -- 100
2020-11-04 10:00:00 7.6 0 Calma 4 Sur 0.4 -- -- 100
2020-11-04 09:00:00 7.6 0 Calma 5 Nordeste 0.6 -- -- 100
2020-11-04 08:00:00 7.5 3 Norte 7 Norte 1.6 -- -- 100
2020-11-04 07:00:00 7.6 4 Norte 10 Nordeste 1 -- -- 100
2020-11-04 06:00:00 8 3 Norte 6 Nordeste 1.4 -- -- 100
2020-11-04 05:00:00 8.3 3 Norte 8 Norte 0.6 -- -- 100
2020-11-04 04:00:00 8.9 2 Sudoeste 6 Sur 1 -- -- 100
2020-11-04 03:00:00 9 0 Calma 3 Sur 0.4 -- -- 100
2020-11-04 02:00:00 9 0 Calma 7 Sudoeste 1.2 -- -- 100
2020-11-04 01:00:00 9.1 3 Sudoeste 8 Sudoeste 2.6 -- -- 100
2020-11-04 00:00:00 9.2 0 Calma 5 Este 0.6 -- -- 100
2020-11-03 23:00:00 9.4 3 Nordeste 5 Nordeste 1.8 -- -- 100
2020-11-03 22:00:00 9.5 2 Norte 5 Nordeste 2.2 -- -- 100
2020-11-03 21:00:00 9.8 2 Noroeste 12 Nordeste 4.2 -- -- 100
2020-11-03 20:00:00 10.3 4 Nordeste 7 Nordeste 1.8 -- -- 100
2020-11-03 19:00:00 10.9 0 Calma 7 Este 3.4 -- -- 100
2020-11-03 18:00:00 11.4 4 Nordeste 8 Sur 3.2 -- -- 100
2020-11-03 17:00:00 11.9 0 Calma 5 Oeste 1 -- -- 100
2020-11-03 16:00:00 12.1 3 Sudoeste 12 Oeste 0 -- -- 98
2020-11-03 15:00:00 12.5 5 Sudoeste 14 Sudoeste 0 -- -- 94
2020-11-03 14:00:00 13 8 Sudoeste 16 Oeste 0 -- -- 90
2020-11-03 13:00:00 13.5 5 Oeste 11 Oeste 0 -- -- 87
2020-11-03 12:00:00 13.5 3 Norte 8 Oeste 0 -- -- 88
2020-11-03 11:00:00 13.2 4 Sudoeste 9 Sur 0 -- -- 84
2020-11-03 10:00:00 11.4 2 Sudoeste 5 Sur 0 -- -- 100
2020-11-03 09:00:00 7.2 2 Sudoeste 5 Este 0 -- -- 100
2020-11-03 08:00:00 5.5 0 Calma 3 Sudoeste 0 -- -- 100
2020-11-03 07:00:00 5.6 0 Calma 4 Sur 0 -- -- 100
2020-11-03 06:00:00 6.5 0 Calma 3 Sur 0 -- -- 100
2020-11-03 05:00:00 6.2 0 Calma 3 Sudoeste 0 -- -- 100
2020-11-03 04:00:00 7.5 0 Calma 3 Oeste 0 -- -- 100
2020-11-03 03:00:00 8.4 2 Sur 5 Sur 0 -- -- 100
2020-11-03 02:00:00 8.3 0 Calma 2 Sur 0 -- -- 100
2020-11-03 01:00:00 8.8 0 Calma 8 Nordeste 0 -- -- 97
2020-11-03 00:00:00 10.4 2 Nordeste 8 Nordeste 0 -- -- 98
2020-11-02 23:00:00 11.6 2 Nordeste 8 Nordeste 0 -- -- 99
2020-11-02 22:00:00 12 4 Este 8 Nordeste 0 -- -- 100
2020-11-02 21:00:00 12.2 3 Nordeste 8 Nordeste 0 -- -- 100
2020-11-02 20:00:00 12.3 4 Nordeste 8 Nordeste 0 -- -- 100
2020-11-02 19:00:00 12.3 5 Norte 14 Nordeste 0 -- -- 98
2020-11-02 18:00:00 13.3 4 Norte 10 Norte 0 -- -- 92
2020-11-02 17:00:00 15.2 8 Nordeste 14 Nordeste 0 -- -- 84
2020-11-02 16:00:00 17.4 6 Nordeste 15 Sudeste 0 -- -- 74
2020-11-02 15:00:00 20.7 4 Este 18 Sudoeste 0 -- -- 62
2020-11-02 14:00:00 21.1 6 Sur 17 Oeste 0 -- -- 58
2020-11-02 13:00:00 21.3 4 Sudoeste 14 Sudoeste 0 -- -- 56
2020-11-02 12:00:00 19.5 9 Oeste 18 Sudoeste 0 -- -- 55
2020-11-02 11:00:00 16.9 6 Sudoeste 17 Sudoeste 0 -- -- 66
2020-11-02 10:00:00 12.1 10 Sudoeste 18 Sur 0 -- -- 77
2020-11-02 09:00:00 7.1 6 Sur 18 Sudoeste 0 -- -- 90
2020-11-02 08:00:00 6.1 9 Sudoeste 18 Oeste 0 -- -- 90
2020-11-02 07:00:00 6 8 Sudoeste 19 Sudoeste 0 -- -- 89
2020-11-02 06:00:00 5.9 8 Sudoeste 21 Sudoeste 0 -- -- 91
2020-11-02 05:00:00 5.4 9 Sudoeste 20 Sudoeste 0 -- -- 96
2020-11-02 04:00:00 5.2 7 Sudoeste 17 Sudoeste 0 -- -- 100
2020-11-02 03:00:00 5.5 9 Sudoeste 17 Sudoeste 0 -- -- 100
2020-11-02 02:00:00 5.6 5 Sudoeste 12 Oeste 0 -- -- 100
2020-11-02 01:00:00 4.2 0 Calma 3 Sudeste 0 -- -- 100
2020-11-02 00:00:00 4.5 0 Calma 2 Sur 0 -- -- 100
2020-11-01 23:00:00 5.1 0 Calma 3 Sur 0 -- -- 100
2020-11-01 22:00:00 5.8 0 Calma -- -- 0 -- -- 98
2020-11-01 21:00:00 6.5 0 Calma 4 Sur 0 -- -- 96
2020-11-01 20:00:00 7.7 0 Calma 3 Sur 0 -- -- 92
2020-11-01 19:00:00 9.5 0 Calma 5 Sudeste 0 -- -- 89
2020-11-01 18:00:00 12.3 2 Sur 5 Oeste 0 -- -- 82
2020-11-01 17:00:00 15.9 0 Calma 8 Nordeste 0 -- -- 73
2020-11-01 16:00:00 18.5 0 Calma 8 Este 0 -- -- 58
2020-11-01 15:00:00 19.4 6 Este 10 Este 0 -- -- 53
2020-11-01 14:00:00 20.4 5 Este 12 Sur 0 -- -- 48
2020-11-01 13:00:00 20.3 4 Este 9 Nordeste 0 -- -- 48
2020-11-01 12:00:00 18.7 3 Este 6 Sudoeste 0 -- -- 51
2020-11-01 11:00:00 13.7 0 Calma 0 Calma 0 -- -- 69
2020-11-01 10:00:00 8.4 0 Calma 2 Sur 0 -- -- 100
2020-11-01 09:00:00 3.4 0 Calma 0 Calma 0 -- -- 100
2020-11-01 08:00:00 2.1 0 Calma 0 Calma 0 -- -- 100
2020-11-01 07:00:00 2.1 0 Calma 0 Calma 0 -- -- 100
2020-11-01 06:00:00 2 0 Calma 0 Calma 0 -- -- 100
2020-11-01 05:00:00 2.2 0 Calma 0 Calma 0 -- -- 100
2020-11-01 04:00:00 2.5 0 Calma 0 Calma 0 -- -- 100
2020-11-01 03:00:00 3.1 0 Calma 0 Calma 0 -- -- 100
2020-11-01 02:00:00 3.4 0 Calma 0 Calma 0 -- -- 100
2020-11-01 01:00:00 4 0 Calma 0 Calma 0 -- -- 100
2020-11-01 00:00:00 4.5 0 Calma 5 Sur 0 -- -- 99
2020-10-31 23:00:00 5 0 Calma 4 Sur 0 -- -- 98
2020-10-31 22:00:00 5.8 2 Sudeste 5 Sur 0 -- -- 97
2020-10-31 21:00:00 6.8 0 Calma 6 Nordeste 0 -- -- 94
2020-10-31 20:00:00 8 2 Sudoeste 5 Sudeste 0 -- -- 95
2020-10-31 19:00:00 9.3 0 Calma 3 Este 0 -- -- 91
2020-10-31 18:00:00 12.4 0 Calma 5 Nordeste 0 -- -- 82
2020-10-31 17:00:00 16.3 0 Calma 6 Nordeste 0 -- -- 72
2020-10-31 16:00:00 18.3 4 Sudeste 11 Sudeste 0 -- -- 62
2020-10-31 15:00:00 20.2 4 Sudeste 14 Sur 0 -- -- 53
2020-10-31 14:00:00 21.1 9 Sudoeste 21 Oeste 0 -- -- 50
2020-10-31 13:00:00 20.9 6 Sudoeste 16 Sur 0 -- -- 47
2020-10-31 12:00:00 18.7 8 Sudoeste 17 Sudoeste 0 -- -- 51
2020-10-31 11:00:00 14.4 4 Sur 9 Sudoeste 0 -- -- 65
2020-10-31 10:00:00 9.3 0 Calma 0 Calma 0 -- -- 90
2020-10-31 09:00:00 3.7 0 Calma 0 Calma 0 -- -- 100
2020-10-31 08:00:00 1.5 0 Calma 0 Calma 0 -- -- 100
2020-10-31 07:00:00 1.8 0 Calma 0 Calma 0 -- -- 100
2020-10-31 06:00:00 2.2 0 Calma 0 Calma 0 -- -- 100
2020-10-31 05:00:00 2.3 0 Calma 0 Calma 0 -- -- 100
2020-10-31 04:00:00 2.9 0 Calma 0 Calma 0 -- -- 100
2020-10-31 03:00:00 3 0 Calma 0 Calma 0 -- -- 100
2020-10-31 02:00:00 3.7 0 Calma 0 Calma 0 -- -- 100
2020-10-31 01:00:00 4.1 0 Calma 0 Calma 0 -- -- 100
2020-10-31 00:00:00 4.8 0 Calma 0 Calma 0 -- -- 100
2020-10-30 23:00:00 5.2 0 Calma 0 Calma 0 -- -- 99
2020-10-30 22:00:00 5.8 0 Calma 2 Sudeste 0 -- -- 97
2020-10-30 21:00:00 6.6 0 Calma 3 Sur 0 -- -- 94
2020-10-30 20:00:00 7.9 0 Calma 3 Sur 0 -- -- 91
2020-10-30 19:00:00 9.8 0 Calma 3 Sur 0 -- -- 86
2020-10-30 18:00:00 12.5 0 Calma 4 Sur 0 -- -- 80
2020-10-30 17:00:00 16.1 2 Sur 5 Sudeste 0 -- -- 70
2020-10-30 16:00:00 19.7 3 Sur 8 Sur 0 -- -- 61
2020-10-30 15:00:00 21.2 4 Sudeste 12 Sudeste 0 -- -- 51
2020-10-30 14:00:00 21.9 4 Sur 15 Oeste 0 -- -- 48
2020-10-30 13:00:00 21.3 5 Sudoeste 10 Oeste 0 -- -- 42
2020-10-30 12:00:00 18.3 3 Sudoeste 8 Sudoeste 0 -- -- 59
2020-10-30 11:00:00 14.3 3 Sudoeste 5 Sudoeste 0 -- -- 77
2020-10-30 10:00:00 9.6 2 Sur 4 Sur 0 -- -- 100
2020-10-30 09:00:00 4.5 0 Calma 3 Sur 0 -- -- 100
2020-10-30 08:00:00 2.8 3 Sudoeste 5 Sur 0 -- -- 100
2020-10-30 07:00:00 2.6 0 Calma 4 Sudeste 0 -- -- 100
2020-10-30 06:00:00 3.2 0 Calma 4 Sudoeste 0 -- -- 100
2020-10-30 05:00:00 4.2 2 Sudoeste 5 Oeste 0 -- -- 100
2020-10-30 04:00:00 5 0 Calma 5 Sudoeste 0 -- -- 100
2020-10-30 03:00:00 4.9 3 Sudoeste 5 Oeste 0 -- -- 100
2020-10-30 02:00:00 5 0 Calma 0 Calma 0 -- -- 100
2020-10-30 01:00:00 5 0 Calma 0 Calma 0 -- -- 100
2020-10-30 00:00:00 5 0 Calma -- -- 0 -- -- 100